Tracking 20241 objects as of 25-Jan-2020
HD Live streaming from Space Station
objects crossing your sky now

SL-12 R/B(2)

Track SL-12 R/B(2) now!


NORAD ID: 17875
Int'l Code: 1984-090F
Perigee: 35,450.3 km
Apogee: 35,586.3 km
Inclination: 12.3 °
Period: 1,422.0 minutes
Semi major axis: 41889 km
RCS: 2.018 m2 (large)
Launch date: August 24, 1984
Source: Commonwealth of Independent States (former USSR) (CIS)
Launch site: TYURATAM MISSILE AND SPACE COMPLEX (TTMTR)

Note: This is a ROCKET BODY
aabbcc
Your satellite tracking list
Your tracking list is empty




NASA's NSSDC Master Catalog

Two Line Element Set (TLE):
1 17875U 84090F   20025.52601993 +.00000027 +00000-0 +00000-0 0  9992
2 17875 012.2773 327.3100 0016235 093.4265 101.4551 01.01262516133226
Source of the keplerian elements: AFSPC